Current Weather Conditions: station 63103

sailwx.info

Wind from 190 at 19 knots

Wave height 1.9 meters (6 feet), 5 second period

Air temperature 12.8° C
Dewpoint 9.6° C

Last reported at 2016-Sep-27 03:00 UTC.
Time now 2016-Sep-27 05:17 UTC

Location: N 61°12' E 001°06'.
View on Google Maps.

See reports from other nearby stations

  
Tides and Currents Weather Stations Pressure Air Temp Water Temp Dewpoint Dewpoint Depression Visibility Wind Speed Wind Dir Waves Ship Positions
date/time (UTC)wind fromknots sea level pressurealtimeterstation pressurevisibilityair tempwater tempwave heightnotes
2016-Sep-27 03:00 190 19 12.8 1.9
2016-Sep-27 02:00 200 18 12.7 2.0
2016-Sep-27 01:00 200 19 12.6 2.0
2016-Sep-27 00:00 200 19 12.6 2.3
2016-Sep-26 23:00 200 20 12.6 2.2
2016-Sep-26 22:00 200 20 12.7 2.2
2016-Sep-26 21:00 210 19 12.6 2.1
2016-Sep-26 20:00 210 19 12.7 2.0
2016-Sep-26 19:00 210 19 12.8 2.1
2016-Sep-26 18:00 200 20 13.1 2.0
2016-Sep-26 17:00 200 20 13.6 2.2
2016-Sep-26 16:00 200 18 13.9 2.1
2016-Sep-26 15:00 200 17 14.1 2.0
2016-Sep-26 14:00 210 18 14.4 1.9
2016-Sep-26 13:00 210 17 14.4 1.9
2016-Sep-26 12:00 210 16 14.2 1.9
2016-Sep-26 11:00 220 16 14.0 1.9
2016-Sep-26 10:00 220 17 13.8 2.0
2016-Sep-26 09:00 220 17 13.5 2.2
2016-Sep-26 08:00 220 16 13.0 2.2
2016-Sep-26 07:00 220 16 12.6 2.4
2016-Sep-26 06:00 220 17 12.8 2.4
2016-Sep-26 05:00 220 18 12.8 2.5
2016-Sep-26 04:00 210 20 12.8 2.5
2016-Sep-26 03:00 200 17 13.0 2.4
2016-Sep-26 02:00 220 14 13.0 2.2
2016-Sep-26 01:00 210 15 13.1 2.2
2016-Sep-26 00:00 220 16 13.2 2.4
2016-Sep-25 23:00 210 18 13.3 2.3
2016-Sep-25 22:00 200 20 13.2 2.4
2016-Sep-25 21:00 200 20 13.1 2.5
2016-Sep-25 20:00 190 20 13.2 2.6
2016-Sep-25 19:00 210 20 13.4 2.8
2016-Sep-25 18:00 210 22 13.7 2.8
2016-Sep-25 17:00 200 22 13.8 2.7
2016-Sep-25 16:00 190 25 13.7 3.1
2016-Sep-25 15:00 180 24 13.8 2.9
2016-Sep-25 14:00 190 26 14.2 3.0
2016-Sep-25 13:00 190 29 14.4 3.1
2016-Sep-25 12:00 180 29 14.4 3.1
2016-Sep-25 11:00 180 30 14.4 3.0
2016-Sep-25 10:00 180 27 14.5 2.9
2016-Sep-25 09:00 180 29 14.5 2.9
2016-Sep-25 08:00 170 31 14.5 3.1
2016-Sep-25 07:00 180 31 14.5 3.0
2016-Sep-25 06:00 180 29 14.5 3.2
2016-Sep-25 05:00 170 27 14.4 3.4